This demonstration page uses our WeatherBlox Daily Observations layout. Learn more.

Left ArrowRight Arrow

40.92501, -98.34201

Hourly Observations for September 17, 2022

Temp ( °F °C ) Dew Point ( °F °C ) Humidity (%) Winds ( mph kmh ) Pressure ( in mb ) Visibility ( mi km ) Precip ( " mm )
12:53 am 00:53 Mostly Cloudy 72 22.2 63 17.2 73 73 WNW 8 13 29.89 1012 10 16 0.00 0.00
1:23 am 01:23 Mostly Cloudy with Nearby Thunderstorms 71 21.7 63 17.2 76 76 N 6 9 29.85 1011 10 16 0.00 0.00
1:53 am 01:53 Partly Cloudy with Nearby Thunderstorms 69 20.6 61 16.1 75 75 N 15 24 29.87 1011 10 16 0.00 0.00
2:01 am 02:01 Mostly Clear 69 20.6 60 15.6 73 73 N 14 22 29.84 1010 10 16 0.00 0.00
2:53 am 02:53 Clear 67 19.4 60 15.6 79 79 E 10 17 29.81 1010 10 16 0.00 0.00
3:53 am 03:53 Clear 67 19.4 60 15.6 79 79 SE 14 22 29.80 1009 10 16 0.00 0.00
4:53 am 04:53 Mostly Cloudy with Nearby Thunderstorms 68 20 62 16.7 81 81 SSE 15 24 29.82 1010 10 16 0.01 0.13
5:18 am 05:18 Mostly Cloudy with Light Rain 68 20 63 17.2 84 84 SE 21 33 29.70 1006 10 16 0.01 0.13
6:53 am 06:53 Clear 68 20 63 17.2 84 84 ESE 6 9 29.82 1010 10 16 0.00 0.00
7:53 am 07:53 Sunny 68 20 63 17.2 84 84 ESE 7 11 29.82 1010 10 16 0.00 0.00
8:53 am 08:53 Sunny 68 20 64 17.8 87 87 E 8 13 29.85 1011 10 16 0.00 0.00
9:53 am 09:53 Sunny 71 21.7 64 17.8 79 79 SE 12 19 29.84 1011 10 16 0.00 0.00
10:53 am 10:53 Sunny 76 24.4 63 17.2 64 64 SE 14 22 29.85 1011 10 16 0.00 0.00
11:53 am 11:53 Sunny 78 25.6 64 17.8 62 62 S 9 15 29.85 1011 10 16 0.00 0.00
12:34 pm 12:34 Mostly Cloudy 78 25.6 65 18.3 64 64 S 12 19 29.78 1009 10 16 0.00 0.00
12:53 pm 12:53 Mostly Cloudy 79 26.1 65 18.3 62 62 S 12 19 29.83 1010 10 16 0.00 0.00
1:53 pm 13:53 Mostly Cloudy 80 26.7 65 18.3 60 60 WSW 13 20 29.82 1010 10 16 0.00 0.00
2:53 pm 14:53 Cloudy 84 28.9 65 18.3 53 53 WSW 7 11 29.81 1009 10 16 0.00 0.00
3:53 pm 15:53 Partly Cloudy 82 27.8 64 17.8 55 55 NW 6 9 29.80 1009 10 16 0.00 0.00
4:53 pm 16:53 Mostly Cloudy 84 28.9 64 17.8 51 51 SSW 3 6 29.80 1009 10 16 0.00 0.00
5:53 pm 17:53 Mostly Cloudy 83 28.3 64 17.8 53 53 E 6 9 29.79 1009 10 16 0.00 0.00
6:53 pm 18:53 Sunny 82 27.8 64 17.8 55 55 NNE 3 6 29.80 1009 10 16 0.00 0.00
7:53 pm 19:53 Clear 75 23.9 65 18.3 71 71 NNE 6 9 29.81 1009 10 16 0.00 0.00
8:53 pm 20:53 Clear 69 20.6 63 17.2 81 81 N 8 13 29.82 1010 10 16 0.00 0.00
9:53 pm 21:53 Clear 67 19.4 62 16.7 84 84 NNE 6 9 29.83 1010 10 16 0.00 0.00
10:53 pm 22:53 Clear 67 19.4 61 16.1 81 81 Calm 29.85 1011 10 16 0.00 0.00
11:53 pm 23:53 Clear 65 18.3 61 16.1 87 87 Calm 29.86 1011 10 16 0.00 0.00

Powered by AerisWeather